Regional Weather Roundup
Issued by NWS

Home | Current Version | Previous Version | Graphics & Text | Print | Product List | Glossary On
Versions: 1 2 3 4 5 6 7 8 9 10 11 12 13 14 15 16 17 18 19 20 21 22 23 24 25 26 27 28 29 30 31 32 33 34 35 36 37 38 39 40 41 42 43 44 45 46 47 48 49 50
000
ASUS45 KTFX 232304
RWRMT
MONTANA HOURLY WEATHER ROUNDUP
NATIONAL WEATHER SERVICE GREAT FALLS MT
504 PM MDT WED JUL 23 2014

NOTE: "FAIR" INDICATES FEW OR NO CLOUDS BELOW 12000 FEET WITH NO
SIGNIFICANT WEATHER AND/OR OBSTRUCTIONS TO VISIBILITY.

* THESE STATIONS ARE NOT UNDER NWS QUALITY CONTROL. THEY DO NOT
   REPORT WEATHER SUCH AS PRECIPITATION OR FOG.

MTZ001>007-043-240000-
WEST OF THE DIVIDE
CITY           SKY/WX    TMP DP  RH WIND       PRES   REMARKS
KALISPELL      CLEAR     84  54  36 E3        29.91F
MISSOULA       PTCLDY    88  48  25 S15       29.90F
BUTTE          PTCLDY    84  39  20 N/A       30.09F
MULLAN PASS    MOCLDY    72  43  35 VRB3      30.08F
* ESSEX        N/A       85  42  22 SE4        N/A
* LINCOLN      N/A       88  46  23 S6G14      N/A
* LOOKOUT PASS N/A       78  43  29 SE7G15     N/A
* POLSON       N/A       83  53  36 N3         N/A
* RONAN APT    CLEAR     84  61  46 N6         N/A   HI  84
* SEELEY LAKE  N/A       88  51  28 S7G17      N/A
* THOMP F APT  PTCLDY    84  36  18 S11G21     N/A
* YAAK HILL    N/A       91  48  23 SE4        N/A
$$

MTZ008-052>055-240000-
SOUTHWEST MONTANA
CITY           SKY/WX    TMP DP  RH WIND       PRES   REMARKS
BOZEMAN        MOCLDY    88  50  27 N3        30.03F
DILLON         MOCLDY    86  48  27 NE7       30.06F
W YELLOWSTONE  CLEAR     82  25  12 SW18G29   30.24F
* THREE FORKS  MOCLDY    86  61  43 E6         N/A   HI  86
* BOULDER HILL N/A       80  44  28 SW11G20    N/A
* MONIDA PASS  N/A       81  33  18 S17G32     N/A
* RAYNOLDS PAS N/A       82  66  58 SW14G26    N/A   HI  84
* WHITEHALL    N/A       88  54  31 SE4        N/A
* WISE RIVER   N/A       85  41  21 W7G18      N/A
$$

MTZ009>010-012-014-046-048-049-054-240000-
EAST SLOPES AND CENTRAL MONTANA
CITY           SKY/WX    TMP DP  RH WIND       PRES   REMARKS
CUT BANK       PTCLDY    84  54  36 E5        29.98F
GREAT FALLS    CLEAR     91  46  21 S6        29.96F
HELENA         PTCLDY    90  52  27 E18G29    29.97F
MALMSTROM AFB  PTCLDY    91  48  23 VRB3G13   29.96F
* CONRAD       PTCLDY    86  57  37 SE7        N/A
* DEARBORN     N/A       92  46  20 S6G12      N/A
* EAST GLACIER N/A       81  43  26 W10G19     N/A
* MONARCH      N/A       83  46  27 N6G14      N/A
* PENDROY      N/A       87  42  21 SW15G21    N/A
* ROGERS PASS  N/A       81  43  26 SE10G20    N/A
* SAINT MARY   N/A       81  47  30 SW6G13     N/A
* SWEET GRASS  N/A       86  53  32 S9G15      N/A
$$

MTZ011-013-016-021-035-040-045-047-050-051-240000-
NORTH CENTRAL MONTANA
CITY           SKY/WX    TMP DP  RH WIND       PRES   REMARKS
HAVRE          PTCLDY    93  55  28 SE16      29.91F
LEWISTOWN      PTCLDY    88  54  31 W5        30.04F
* CHESTER      N/A       92  49  23 S2G7       N/A
* DENTON       N/A       91  54  28 SW3        N/A
* JUDITH GAP   N/A       84  52  33 S6         N/A
* LOMA         N/A       92  52  26 E7G12      N/A
$$

MTZ017>020-022>027-061-062-240000-
NORTHEAST MONTANA
CITY           SKY/WX    TMP DP  RH WIND       PRES   REMARKS
GLASGOW        PTCLDY    91  57  32 E21G31    29.96F
GLENDIVE       PTCLDY    90  64  42 SE20G26   30.03F HI  91
JORDAN         PTCLDY    91  63  39 E16G23    29.96F
SIDNEY         CLEAR    N/A N/A N/A SE10G17   30.03F
WOLF POINT     PTCLDY    91  59  34 E16G22    29.99F
* BEAVER HILL  N/A       85  64  49 E21G28     N/A   HI  86
* CIRCLE       N/A       90  64  42 SE13       N/A   HI  91
* LINDSAY DVD  N/A       86  64  48 E17G26     N/A   HI  87
* NAVAJO       N/A       83  62  49 SE18G26    N/A   HI  84
$$

MTZ028>042-056>058-240000-
SOUTHCENTRAL AND SOUTHEAST MONTANA
CITY           SKY/WX    TMP DP  RH WIND       PRES   REMARKS
BAKER          PTCLDY    86  63  46 SE22G33   30.06F HI  87
BILLINGS       PTCLDY    90  55  31 E8        30.00F
LIVINGSTON     PTCLDY    93  46  20 E5        30.02F
MILES CITY     PTCLDY    93  64  38 E15       29.95F
* LAUREL APT   PTCLDY    90  55  31 N/A        N/A
* ROUNDUP APT  PTCLDY    90  57  33 N/A        N/A
* ALZADA       N/A       90  65  44 E11        N/A   HI  92
* HYSHAM       N/A       93  59  32 N4G9       N/A
* LAME DEER    N/A       89  62  41 SE11G20    N/A   HI  90
* REED POINT   N/A       95  52  23 NE2        N/A
* ROSCOE HILL  N/A       87  52  30 NE8G14     N/A
$$

REGIONAL REPORTS...DAKOTAS
CITY           SKY/WX    TMP DP  RH WIND       PRES   REMARKS
WILLISTON      PTCLDY    86  63  46 SE21G28   30.06F HI  87
DICKINSON      PTCLDY    82  64  55 SE18G26   30.10F HI  84
CROSBY         N/A       77  73  88 E15G24    30.11F
TIOGA          FAIR      81  66  60 SE20G26   30.15F HI  83
WATFORD CITY   FAIR      82  63  53 SE18G25   30.07S HI  83
BISMARCK       CLEAR     82  59  46 SE17      30.15F HI  82
GRAND FORKS    PTCLDY    75  57  54 VRB5      30.22F
FARGO          FAIR      79  57  47 N9        30.21F
BUFFALO SD     PTCLDY    86  61  43 SE23G30   30.01F HI  86
RAPID CITY     CLEAR     84  63  49 SE15      30.11F HI  85
$$

REGIONAL REPORTS...WYOMING/IDAHO/WASHINGTON
CITY           SKY/WX    TMP DP  RH WIND       PRES   REMARKS
GILLETTE       CLEAR     93  57  30 SE20G28   30.06F
SHERIDAN       PTCLDY    95  59  30 SE5       29.99F
YELLOWSTONE LA PTCLDY    79  34  20 W8G18     30.37F
SALMON         PTCLDY    88  48  25 NW8       29.90F
MULLAN PASS    MOCLDY    72  43  35 VRB3      30.08S
SAND POINT     MOCLDY    82  54  38 N3        29.84F
SPOKANE        CLOUDY    82  48  31 SW20      29.85F

$$




USA.gov is the U.S. government's official web portal to all federal, state and local government web resources and services.